Regional Weather Roundup
Issued by NWS Little Rock, AR

Home | Current Version | Previous Version | Graphics & Text | Print | Product List | Glossary On
Versions: 1 2 3 4 5 6 7 8 9 10 11 12 13 14 15 16 17 18 19 20 21 22 23 24 25 26 27 28 29 30 31 32 33 34 35 36 37 38 39 40 41 42 43 44 45 46 47 48 49 50
000
ASUS44 KLZK 270805
RWRLZK

WEATHER ROUNDUP FOR ARKANSAS
NATIONAL WEATHER SERVICE LITTLE ROCK AR
300 AM CDT WED MAY 27 2015

NOTE: "FAIR" INDICATES FEW OR NO CLOUDS BELOW 12,000 FEET WITH NO
SIGNIFICANT WEATHER AND/OR OBSTRUCTIONS TO VISIBILITY.

ARZ001-003-010-029-270900-
NORTHWEST ARKANSAS

CITY           SKY/WX    TMP DP  RH WIND       PRES   REMARKS
FAYETTEVILLE   TSTM      70  67  90 S22G28    30.00F
FORT SMITH     CLOUDY    70  66  87 N3        30.01S
HARRISON       CLOUDY    69  65  86 S10       30.03F
BENTONVILLE    CLOUDY   N/A N/A N/A S8        30.00F
ROGERS         LGT RAIN  68  66  93 CALM      30.02S
SILOAM SPGS    CLOUDY    70  63  78 N6        29.99F
HIGHFILL       CLOUDY    69  67  93 SW3       30.00F
$$

ARZ004-005-016-270900-
NORTH CENTRAL ARKANSAS

CITY           SKY/WX    TMP DP  RH WIND       PRES   REMARKS
BATESVILLE     PTCLDY    70  64  83 E3        30.04S
FLIPPIN        CLOUDY    66  64  94 CALM      30.01F
MTN HOME       MOCLDY    67  65  93 S6        30.02F
$$

ARZ040-041-270900-
WEST CENTRAL ARKANSAS

CITY           SKY/WX    TMP DP  RH WIND       PRES   REMARKS
MENA           CLOUDY    73  70  88 S5        30.05F
MOUNT IDA      CLOUDY    74  66  76 VRB5      30.02F
$$

ARZ009-017-025-026-028-270900-
NORTHEAST ARKANSAS

CITY           SKY/WX    TMP DP  RH WIND       PRES   REMARKS
CORNING        FAIR      66  66 100 SW5       30.05S
JONESBORO      CLEAR     65  65 100 SW3       30.05R
NEWPORT        PTCLDY    67  66  96 S6        30.04F
WALNUT RIDGE   CLEAR     66  63  88 S6        30.05R
BLYTHEVILLE    PTCLDY    68  67  96 S5        30.05R
$$

ARZ022-023-033-042-044-270900-
CENTRAL ARKANSAS

CITY           SKY/WX    TMP DP  RH WIND       PRES   REMARKS
LITTLE ROCK    CLOUDY    71  63  75 SW5       30.04F
N LITTLE ROCK    N/A     71  68  90 SW7       30.04F
JACKSONVILLE   MOCLDY    71  66  86 S6        30.03F
SEARCY         MOCLDY    64  64 100 CALM      30.06S FOG
HOT SPRINGS    CLOUDY    73  67  81 S3        30.04F
RUSSELLVILLE   CLOUDY    68  67  96 CALM      30.02F
CLINTON        FAIR      64  64 100 CALM      30.05F FOG
$$

ARZ036-270900-
EAST ARKANSAS

CITY           SKY/WX    TMP DP  RH WIND       PRES   REMARKS
WEST MEMPHIS   PTCLDY    68  68 100 S7        30.05S
$$

ARZ050-053-066-070-073-270900-
SOUTHWEST ARKANSAS

CITY           SKY/WX    TMP DP  RH WIND       PRES   REMARKS
ARKADELPHIA    FAIR      72  72 100 CALM      30.05S
CAMDEN         CLOUDY    70  64  83 CALM      30.05F
TEXARKANA      CLOUDY    72  69  90 S8        30.02F
EL DORADO      CLOUDY    70  68  93 S3        30.07R
DE QUEEN       CLOUDY    72  70  93 E5        30.01F
$$

ARZ056-057-069-270900-
SOUTHEAST ARKANSAS

CITY           SKY/WX    TMP DP  RH WIND       PRES   REMARKS
PINE BLUFF     MOCLDY    70  66  87 S6        30.06S
STUTTGART      MOCLDY    72  66  83 S8        30.06S
MONTICELLO     MOCLDY    72  70  93 S6        30.08R

$$





USA.gov is the U.S. government's official web portal to all federal, state and local government web resources and services.